This is the latest recevied weather packets stored in our database for station/object KD4KKF. If no packets are shown the sender has not sent any weather packets the latest 10 day(s).
| Time | Temp. | Humidity | Pressure | Rain* | Wind** | Luminosity | Snow |
|---|---|---|---|---|---|---|---|
| 1778018345 | 22.78° C | 72% | 1010 hPa | 0 mm | - | 267 W/m² | - |
| 1778018043 | 22.78° C | 71% | 1010.2 hPa | 0 mm | - | 234 W/m² | - |
| 1778017741 | 23.33° C | 71% | 1010.2 hPa | 0 mm | - | 112 W/m² | - |
| 1778017438 | 23.33° C | 72% | 1010.2 hPa | 0 mm | - | 209 W/m² | - |
| 1778017135 | 23.33° C | 72% | 1010.4 hPa | 0 mm | - | 177 W/m² | - |
| 1778016833 | 23.33° C | 70% | 1010.4 hPa | 0 mm | - | 188 W/m² | - |
| 1778016528 | 23.33° C | 71% | 1010.4 hPa | 0 mm | - | 253 W/m² | - |
| 1778016226 | 23.89° C | 70% | 1010.2 hPa | 0 mm | - | 311 W/m² | - |
| 1778015922 | 23.33° C | 71% | 1010.3 hPa | 0 mm | - | 382 W/m² | - |
| 1778015620 | 23.33° C | 71% | 1010.3 hPa | 0 mm | - | 281 W/m² | - |
| 1778015316 | 22.78° C | 73% | 1010.5 hPa | 0 mm | - | 206 W/m² | - |
| 1778015013 | 22.78° C | 71% | 1010.5 hPa | 0 mm | - | 145 W/m² | - |
| 1778014709 | 22.78° C | 71% | 1010.4 hPa | 0 mm | - | 138 W/m² | - |
| 1778014408 | 22.78° C | 69% | 1010.5 hPa | 0 mm | - | 125 W/m² | - |
| 1778014104 | 22.78° C | 70% | 1010.4 hPa | 0 mm | - | 120 W/m² | - |
| 1778013803 | 23.33° C | 69% | 1010.5 hPa | 0 mm | - | 144 W/m² | - |
| 1778013500 | 22.78° C | 70% | 1010.3 hPa | 0 mm | - | 140 W/m² | - |
| 1778013196 | 22.78° C | 69% | 1010.5 hPa | 0 mm | - | 138 W/m² | - |
| 1778012892 | 23.33° C | 68% | 1010.4 hPa | 0 mm | - | 152 W/m² | - |
| 1778012589 | 23.33° C | 69% | 1010.7 hPa | 0 mm | - | 132 W/m² | - |
| 1778012285 | 23.33° C | 68% | 1010.7 hPa | 0 mm | - | 161 W/m² | - |
| 1778011983 | 23.33° C | 68% | 1010.7 hPa | 0 mm | - | 200 W/m² | - |
| 1778011681 | 23.33° C | 68% | 1010.8 hPa | 0 mm | - | 232 W/m² | - |
| 1778011378 | 23.33° C | 67% | 1010.8 hPa | 0 mm | - | 235 W/m² | - |
| 1778011073 | 23.33° C | 69% | 1011.2 hPa | 0 mm | - | 255 W/m² | - |
* Rain latest hour (hover to see other rain measurements)
** Current wind speed in m/s (hover to see current wind gust speed)